[ hide orbit diagram ]
For accurate long-term ephemerides, please instead use our Horizons system.This orbit viewer was implemented using two-body methods, and hence should not be used for determining accurate long-term trajectories (over several years or decades) or planetary encounter circumstances.
[ revert to old Java-based viewer ]
Orbital Elements at Epoch 2458600.5 (2019-Apr-27.0) TDB
Reference: JPL 21 (heliocentric ecliptic J2000)
Element | Value | Uncertainty (1-sigma) | Units |
e | .1428001548127027 | 4.8107e-08 | |
a | 2.222300408354396 | 1.1084e-08 | au |
q | 1.904955566001056 | 1.0896e-07 | au |
i | 3.071656491582266 | 4.4098e-06 | deg |
node | 302.4370516011658 | 9.112e-05 | deg |
peri | 44.27078573733396 | 9.2352e-05 | deg |
M | 169.5247393741585 | 1.402e-05 | deg |
tp | 2458030.685940727205 (2017-Oct-04.18594073) | 4.6731e-05 | TDB |
period | 1210.047938109237 3.31 | 9.0525e-06 2.478e-08 | d yr |
n | .2975088743694888 | 2.2257e-09 | deg/d |
Q | 2.539645250707736 | 1.2666e-08 | au |
|
| | Orbit Determination Parameters
Additional Information
|
[ show covariance matrix ]
Physical Parameter Table
Parameter |
Symbol |
Value |
Units |
Sigma |
Reference |
Notes |
absolute magnitude |
H |
16.4 |
|
n/a |
MPO264328 |
|
|
160192 (2001 YU11) Discovered 2001-Dec-18 by LINEAR at Socorro |
Reference: 20070730/Numbers.arc | Last Updated: 2007-08-06 |
|
|